Location: Unspecified
(42.3650°N, 71.1030°W)
Time: 00:57:09
(UTC+00:00)

Cosmos 1092 Rocket - Pass Details

Date: 02 March 2024
Orbit: 953 x 995 km, 82.9° (Epoch: 13 April)

Event Time Altitude Azimuth Distance (km) Brightness Sun altitude
Rises 23:22:54 0° 356° (N) 3,657 7.1 -9.4°
Reaches altitude 10° 23:25:28 10° 0° (N) 2,702 6.3 -9.9°
Maximum altitude 23:31:32 56° 79° (E) 1,122 4.0 -11.0°
Drops below altitude 10° 23:37:31 10° 157° (SSE) 2,673 6.1 -12.1°
Sets 23:40:03 0° 162° (SSE) 3,614 6.8 -12.6°
